User: anonymous   Login
Location: Unspecified
(0.0000°N, 0.0000°E)
Time: 13:43:47
(UTC+00:00)
Language:

AGILE - Orbit

View from above orbital plane
View from above orbital plane
View from above satellite
View from above satellite

Ground track
Ground track

The orbit data is extracted from the following two-line orbital elements,

1 31135U 07013A   17173.39703883 +.00002371 +00000-0 +42187-4 0  9993
2 31135 002.4679 068.4624 0012454 079.9664 280.1795 15.29710920564519
Epoch (UTC): 22 June 2017 09:31:44
Eccentricity: 0.0012454
inclination: 2.4679°
perigee height: 468 km
apogee height: 485 km
right ascension of ascending node: 68.4624°
argument of perigee: 79.9664°
revolutions per day: 15.29710920
mean anomaly at epoch: 280.1795°
orbit number at epoch: 56451

The dashed part of the orbit path shows where the satellite is in the earth's shadow,  

DLR